This is the latest recevied weather packets stored in our database for station/object HB9TJM-8. If no packets are shown the sender has not sent any weather packets the latest 10 day(s).
| Time | Temp. | Humidity | Pressure | Rain* | Wind** | Luminosity | Snow |
|---|---|---|---|---|---|---|---|
| 1777834921 | 11.67° C | 70% | 1015.6 hPa | 0 mm | - | 0 W/m² | - |
| 1777834613 | 11.67° C | 71% | 1015.7 hPa | 0 mm | - | 0 W/m² | - |
| 1777834306 | 11.67° C | 72% | 1016 hPa | 0 mm | - | 0 W/m² | - |
| 1777833999 | 11.67° C | 72% | 1015.9 hPa | 0 mm | - | 1 W/m² | - |
| 1777833692 | 11.67° C | 70% | 1015.7 hPa | 0 mm | - | 2 W/m² | - |
| 1777833384 | 11.67° C | 71% | 1015.9 hPa | 0 mm | - | 3 W/m² | - |
| 1777833077 | 11.67° C | 71% | 1015.7 hPa | 0 mm | - | 5 W/m² | - |
| 1777832770 | 11.67° C | 69% | 1015.6 hPa | 0 mm | - | 6 W/m² | - |
| 1777832462 | 12.22° C | 70% | 1015.8 hPa | 0 mm | - | 9 W/m² | - |
| 1777832155 | 12.22° C | 68% | 1015.6 hPa | 0 mm | - | 11 W/m² | - |
| 1777831848 | 12.22° C | 68% | 1015.4 hPa | 0 mm | - | 14 W/m² | - |
| 1777831541 | 12.22° C | 67% | 1016 hPa | 0 mm | - | 16 W/m² | - |
| 1777831233 | 12.78° C | 65% | 1016.1 hPa | 0 mm | - | 19 W/m² | - |
| 1777830925 | 12.78° C | 65% | 1015.6 hPa | 0 mm | - | 27 W/m² | - |
| 1777830618 | 13.33° C | 63% | 1015.8 hPa | 0 mm | - | 27 W/m² | - |
| 1777830311 | 13.89° C | 61% | 1015.7 hPa | 0 mm | - | 34 W/m² | - |
| 1777830003 | 13.89° C | 59% | 1015.1 hPa | 0 mm | - | 41 W/m² | - |
| 1777829695 | 13.89° C | 59% | 1015.7 hPa | 0 mm | - | 53 W/m² | - |
| 1777829388 | 13.89° C | 62% | 1015.7 hPa | 0 mm | - | 60 W/m² | - |
| 1777829081 | 13.33° C | 62% | 1015.6 hPa | 0 mm | - | 90 W/m² | - |
| 1777828773 | 13.33° C | 62% | 1015.5 hPa | 0 mm | - | 99 W/m² | - |
| 1777828465 | 13.89° C | 59% | 1015.8 hPa | 0 mm | - | 89 W/m² | - |
| 1777828158 | 13.33° C | 61% | 1015.7 hPa | 0 mm | - | 82 W/m² | - |
| 1777827850 | 13.89° C | 59% | 1015.9 hPa | 0 mm | - | 90 W/m² | - |
| 1777827543 | 13.33° C | 59% | 1016.2 hPa | 0 mm | - | 101 W/m² | - |
* Rain latest hour (hover to see other rain measurements)
** Current wind speed in m/s (hover to see current wind gust speed)